Simultaneous Nadir Overpasses (SNOs) Predictions

Prediction of SNOs between LANDSAT-8 and METOP-B Satellite Orbit:

Table of predicted SNOs for the next 14.0 days since TLE Epoch: 1/15/2016
Index Date (LANDSAT-8) Time (LANDSAT-8) Lat,Lon (LANDSAT-8) SZA (LANDSAT-8 ) Date (METOP-B) Time (METOP-B) Lat,Lon (METOP-B) SZA (METOP-B ) Distance(km) Time Diff (sec)
1 01/15/2016 22:15:14 81.18,-113.16 104.04 01/15/2016 22:14:14 81.18,-113.04 104.04 2.18 60
2 01/15/2016 23:04:40 -81.20, 54.76 75.93 01/15/2016 23:04:54 -81.19, 54.67 75.93 1.52 14
3 01/18/2016 17:49:29 81.19, -46.59 103.50 01/18/2016 17:48:34 81.19, -46.44 103.49 2.47 55
4 01/18/2016 18:38:55 -81.21, 121.36 76.47 01/18/2016 18:39:14 -81.20, 121.27 76.48 1.63 19
5 01/21/2016 13:23:45 81.17, 19.54 102.84 01/21/2016 13:22:56 81.17, 19.36 102.81 3.07 49
6 01/21/2016 14:13:10 -81.21,-172.11 77.08 01/21/2016 14:13:34 -81.21,-172.15 77.07 0.97 24
7 01/24/2016 08:57:58 81.19, 86.33 102.23 01/24/2016 08:57:14 81.19, 86.28 102.20 1.07 44
8 01/24/2016 09:47:24 -81.21,-105.66 77.74 01/24/2016 09:47:53 -81.21,-105.61 77.72 0.96 29
9 01/27/2016 04:32:13 81.19, 152.69 101.51 01/27/2016 04:31:34 81.19, 152.79 101.51 1.86 39




NCC Satellite Simultaneous Nadir Overpasses (SNOs) Prediction Service
